TimeCET,TemperatureF,Dew PointF,Humidity,Sea Level PressureIn,VisibilityMPH,Wind Direction,Wind SpeedMPH,Gust SpeedMPH,PrecipitationIn,Events,Conditions,WindDirDegrees,DateUTC
12:00 AM,41.0,37.4,87,29.56,-9999.0,NW,4.6,-,N/A,,Clear,320,2013-03-11 23:00:00
12:30 AM,37.4,35.6,93,29.56,-9999.0,Calm,Calm,-,N/A,,Clear,0,2013-03-11 23:30:00
1:00 AM,35.6,33.8,93,29.56,6.2,Variable,2.3,-,N/A,,Scattered Clouds,0,2013-03-12 00:00:00
1:30 AM,37.4,37.4,100,29.56,-9999.0,Variable,2.3,-,N/A,,Clear,0,2013-03-12 00:30:00
2:00 AM,33.8,33.8,100,29.56,-9999.0,Variable,2.3,-,N/A,,Clear,0,2013-03-12 01:00:00
2:30 AM,33.8,33.8,100,29.56,6.2,Variable,3.5,-,N/A,,Mostly Cloudy,0,2013-03-12 01:30:00
3:00 AM,35.6,35.6,100,29.56,6.2,Variable,3.5,-,N/A,,Mostly Cloudy,0,2013-03-12 02:00:00
3:30 AM,35.6,35.6,100,29.56,6.2,NW,4.6,-,N/A,,Mostly Cloudy,320,2013-03-12 02:30:00
4:00 AM,39.2,39.2,100,29.56,6.2,WNW,4.6,-,N/A,,Mostly Cloudy,300,2013-03-12 03:00:00
4:30 AM,39.2,39.2,100,29.56,6.2,NW,4.6,-,N/A,,Mostly Cloudy,310,2013-03-12 03:30:00
5:00 AM,39.2,39.2,100,29.56,6.2,NW,4.6,-,N/A,,Mostly Cloudy,310,2013-03-12 04:00:00
5:30 AM,39.2,39.2,100,29.56,6.2,WNW,4.6,-,N/A,,Mostly Cloudy,300,2013-03-12 04:30:00
6:00 AM,39.2,37.4,93,29.56,6.2,Variable,2.3,-,N/A,,Mostly Cloudy,0,2013-03-12 05:00:00
6:30 AM,37.4,35.6,93,29.56,6.2,Variable,2.3,-,N/A,,Mostly Cloudy,0,2013-03-12 05:30:00
7:00 AM,37.4,37.4,100,29.56,6.2,Variable,1.2,-,N/A,,Mostly Cloudy,0,2013-03-12 06:00:00
7:30 AM,41.0,39.2,93,29.56,6.2,Calm,Calm,-,N/A,,Scattered Clouds,0,2013-03-12 06:30:00
8:00 AM,42.8,37.4,81,29.56,6.2,Variable,2.3,-,N/A,,Scattered Clouds,0,2013-03-12 07:00:00
8:30 AM,44.6,33.8,66,29.56,6.2,Variable,1.2,-,N/A,,Scattered Clouds,0,2013-03-12 07:30:00
9:00 AM,46.4,33.8,62,29.56,6.2,Variable,2.3,-,N/A,,Scattered Clouds,0,2013-03-12 08:00:00
9:30 AM,48.2,33.8,58,29.56,6.2,Variable,3.5,-,N/A,,Scattered Clouds,0,2013-03-12 08:30:00
10:00 AM,48.2,35.6,62,29.56,6.2,Variable,3.5,-,N/A,,Scattered Clouds,0,2013-03-12 09:00:00
10:30 AM,50.0,37.4,62,29.53,6.2,Variable,3.5,-,N/A,,Scattered Clouds,0,2013-03-12 09:30:00
11:00 AM,51.8,37.4,58,29.53,6.2,Variable,2.3,-,N/A,,Scattered Clouds,0,2013-03-12 10:00:00
11:30 AM,53.6,39.2,58,29.53,6.2,Variable,3.5,-,N/A,,Scattered Clouds,0,2013-03-12 10:30:00
12:00 PM,53.6,37.4,54,29.53,6.2,Variable,3.5,-,N/A,,Scattered Clouds,0,2013-03-12 11:00:00
12:30 PM,53.6,37.4,54,29.53,6.2,South,6.9,-,N/A,,Mostly Cloudy,170,2013-03-12 11:30:00
1:00 PM,53.6,35.6,51,29.50,6.2,SSW,6.9,19.6,N/A,,Mostly Cloudy,200,2013-03-12 12:00:00
1:30 PM,53.6,37.4,54,29.50,6.2,South,4.6,-,N/A,,Mostly Cloudy,180,2013-03-12 12:30:00
2:00 PM,53.6,37.4,54,29.50,6.2,SSW,6.9,-,N/A,,Mostly Cloudy,210,2013-03-12 13:00:00
2:30 PM,53.6,37.4,54,29.50,6.2,South,4.6,-,N/A,,Mostly Cloudy,180,2013-03-12 13:30:00
3:00 PM,53.6,37.4,54,29.47,6.2,Variable,3.5,-,N/A,,Scattered Clouds,0,2013-03-12 14:00:00
3:30 PM,55.4,39.2,54,29.47,-9999.0,ESE,6.9,-,N/A,,Clear,120,2013-03-12 14:30:00
4:00 PM,53.6,39.2,58,29.47,-9999.0,East,4.6,-,N/A,,Clear,100,2013-03-12 15:00:00
4:30 PM,53.6,39.2,58,29.47,6.2,East,8.1,-,N/A,,Mostly Cloudy,100,2013-03-12 15:30:00
5:00 PM,51.8,41.0,67,29.44,6.2,East,8.1,-,N/A,,Mostly Cloudy,100,2013-03-12 16:00:00
5:30 PM,51.8,42.8,71,29.44,6.2,East,9.2,-,N/A,,Mostly Cloudy,100,2013-03-12 16:30:00
6:00 PM,50.0,42.8,76,29.44,6.2,ESE,8.1,-,N/A,,Mostly Cloudy,110,2013-03-12 17:00:00
6:30 PM,50.0,42.8,76,29.44,6.2,ESE,8.1,-,N/A,,Mostly Cloudy,110,2013-03-12 17:30:00
7:00 PM,50.0,42.8,76,29.44,6.2,ESE,9.2,-,N/A,,Mostly Cloudy,110,2013-03-12 18:00:00
7:30 PM,50.0,42.8,76,29.44,6.2,East,9.2,-,N/A,,Mostly Cloudy,100,2013-03-12 18:30:00
8:00 PM,48.2,42.8,82,29.44,-9999.0,East,11.5,-,N/A,,Clear,100,2013-03-12 19:00:00
8:30 PM,48.2,42.8,82,29.44,-9999.0,ESE,9.2,-,N/A,,Clear,110,2013-03-12 19:30:00
9:00 PM,48.2,42.8,82,29.44,6.2,ESE,9.2,-,N/A,,Mostly Cloudy,120,2013-03-12 20:00:00
9:30 PM,48.2,42.8,82,29.47,6.2,South,8.1,-,N/A,,Mostly Cloudy,170,2013-03-12 20:30:00
10:00 PM,48.2,42.8,82,29.47,6.2,SE,5.8,-,N/A,Rain,Light Rain,140,2013-03-12 21:00:00
10:30 PM,48.2,44.6,87,29.47,6.2,SE,5.8,-,N/A,Rain,Light Rain,140,2013-03-12 21:30:00
11:00 PM,46.4,44.6,93,29.47,5.0,SE,5.8,-,N/A,Rain,Light Rain,140,2013-03-12 22:00:00
11:30 PM,46.4,44.6,93,29.44,5.0,SE,5.8,-,N/A,Rain,Light Rain,130,2013-03-12 22:30:00